Regional Weather Roundup
Issued by NWS

Home | Current Version | Previous Version | Text Only | Print | Product List | Glossary On
Versions: 1 2 3 4 5 6 7 8 9 10 11 12 13 14 15 16 17 18 19 20 21 22 23 24 25 26 27 28 29 30 31 32 33 34 35 36 37 38 39 40 41 42 43 44 45 46 47 48 49 50
000
ASUS42 KKEY 111710
RWRKEY

FLORIDA REGIONAL WEATHER ROUNDUP FOR THE FLORIDA KEYS
NATIONAL WEATHER SERVICE KEY WEST FLORIDA
1200 PM EST THU FEB 11 2016

...SOUTH FLORIDA AND THE KEYS...

CITY           SKY/WX    TMP DP  RH WIND       PRES   REMARKS
FORT MYERS     SUNNY     61  41  47 NE8       30.33F
SW REGIONAL AP SUNNY     64  39  39 NE8       30.33F
NAPLES         SUNNY     64  39  39 NE9       30.33F
MIAMI          PTSUNNY   60  33  36 N7        30.33F
WEST KENDALL   PTSUNNY   60  40  47 N8        30.33F
HOMESTEAD      PTSUNNY   63  31  30 N15       30.32F
MARATHON       MOSUNNY   60  44  55 NE13      30.32F
BOCA CHICA NAS PTSUNNY   62  49  62 NE13      30.32F
KEY WEST INTL  MOSUNNY   62  51  67 NE14      30.32F

...INTERNATIONAL WEATHER...

CITY           SKY/WX    TMP DP  RH WIND       PRES   REMARKS
NASSAU BAHAMAS PTSUNNY   73  36  25 MISG      30.27F
CANCUN MEXICO  PTSUNNY   75  59  57 N9        30.26F
COZUMEL MEXICO PTSUNNY   70  63  78 N13       30.25F

ADJACENT COASTAL WATERS...

STATION/POSITION TIME  SKY/WX   TEMP    WIND        PRES    WAVE
                                AIR SEA DIR/SP/G            HT/PER
                 (UTC)          (F)     (DEG/KT/KT) (MB)    (FT/S)
PULASKI SHOAL LI NOT AVBL
SAND KEY         1650            59      50/ 15/ 19 1027.2F
SOMBRERO KEY     NOT AVBL
LONG KEY         1600            57 63   20/ 13/ 16 1027.9F
MOLASSES REEF    1700            58 74   20/ 13/ 16 1026.6F
FOWEY ROCKS      NOT AVBL

$$



USA.gov is the U.S. government's official web portal to all federal, state and local government web resources and services.